Tracking 17154 objects as of 3-August-2015
HD Live streaming from Space Station

METEOSAT 3

Track METEOSAT 3 now!
METEOSAT 3 is classified as:


NORAD ID: 19215
Int'l Code: 1988-051A
Perigee: 36,739.9 km
Apogee: 36,764.9 km
Inclination: 15.8 °
Period: 1,485.4 minutes
Semi major axis: 43123 km
RCS: 4.1367 m2 (large)
Launch date: June 15, 1988
Source: European Space Agency (ESA)
Your satellite tracking list
Your tracking list is empty





NASA's NSSDC Master Catalog

Two Line Element Set (TLE):
1 19215U 88051A   15212.38423470 -.00000081  00000-0  00000+0 0  9991
2 19215 015.8208 015.8645 0002902 213.3545 114.2905 00.96946829 84871

Source of the keplerian elements: AFSPC

N2YO: 289